Back to catalog

STARLINK-5284

AliveCommunicationsVLEO
NORAD 55297·PAYLOAD·🇺🇸 United States

Launched Jan 19, 2023 from Vandenberg Space Force Base

Loading…

Next Passes (next 24 hours)

TLE

FreshSource: CelesTrak SupGP

Epoch: Sep 15, 2026, 02:31 UTC

1 55297C 23010AE  26258.10534722 -.00030644  00000+0 -25674-2 0  2583
2 55297  70.0000 266.8028 0003532 266.6687  85.7010 14.98355055    10

Track STARLINK-5284 in real time with AllMySat

Download on the App Store